Wind_Speed
26 26 26 25 25 24 23 23 23 22 22 22 22 22 21 21 20 18 17 15 14 13 13 14 15 16 17 18 18 19 20 21 22 23 25 26 27 28 29 31 33 35
27 27 26 26 25 24 24 24 23 23 22 22 22 22 22 23 22 21 20 18 16 15 15 16 16 16 17 17 18 19 20 21 22 22 23 25 27 28 29 30 31 33
26 26 26 26 25 24 23 23 23 23 22 22 22 22 22 22 23 23 22 22 20 19 17 16 16 16 16 17 18 19 20 21 22 22 24 25 25 27 29 30 30 31
23 23 23 23 23 22 22 22 23 23 22 23 23 22 22 22 22 22 22 22 22 22 21 20 18 17 17 17 17 19 20 21 22 22 24 25 26 27 28 29 31 32
18 19 19 19 20 20 20 20 21 21 21 22 22 23 23 23 24 24 23 23 22 22 22 21 21 20 19 17 17 18 19 20 20 21 24 26 26 26 28 29 30 32
14 15 16 16 17 17 18 19 19 19 20 19 21 21 21 21 23 24 25 25 25 24 23 23 22 21 20 19 18 18 19 20 20 20 23 25 26 26 27 28 30 32
12 12 13 14 15 16 16 18 19 19 20 20 21 21 20 20 20 20 22 23 25 25 26 26 25 24 23 21 20 20 19 20 21 21 22 24 25 27 27 28 30 32
10 11 12 13 14 15 15 17 18 19 20 20 22 23 23 22 22 21 21 21 22 23 24 26 27 27 26 25 24 23 22 21 20 21 23 24 25 27 27 28 30 32
11 13 15 16 17 17 17 19 20 21 22 22 23 24 24 24 24 24 24 24 24 24 24 24 25 26 27 28 27 27 26 25 23 22 23 24 25 26 27 28 30 32
14 15 17 19 20 20 21 22 23 24 25 25 26 27 28 27 27 26 26 26 26 26 26 26 25 25 25 27 28 29 29 28 28 26 26 26 26 26 27 27 29 31
18 18 20 22 22 24 24 24 24 26 27 28 28 30 31 31 30 29 28 28 28 28 28 29 28 27 26 26 27 28 29 30 30 29 29 29 29 28 28 27 28 30
24 24 25 26 27 28 28 28 28 29 29 30 30 32 33 34 34 33 32 31 30 30 30 30 30 29 29 29 29 28 28 29 30 31 31 31 31 31 30 29 29 30
27 28 29 30 31 32 33 33 33 33 33 33 33 33 34 35 35 35 35 34 33 33 33 33 33 32 32 32 32 31 30 30 31 31 32 33 34 33 32 31 31 31
26 28 29 31 33 34 35 36 36 36 36 36 36 36 36 36 36 36 36 35 35 34 34 34 34 35 35 34 34 33 32 32 33 33 33 34 35 36 36 35 35 34
26 28 29 31 33 35 36 37 37 38 38 38 38 38 38 38 37 37 37 36 36 35 35 35 35 35 36 35 34 34 34 35 35 35 35 35 35 36 37 37 37 37
26 29 31 32 34 35 36 37 38 39 39 39 39 39 39 39 39 38 37 36 37 37 37 37 37 37 38 37 35 34 35 36 36 36 37 36 36 37 37 38 38 38
27 30 31 32 34 35 36 37 38 38 39 40 40 41 40 39 39 39 38 38 38 38 39 39 39 40 41 39 35 33 33 35 36 37 38 38 38 38 38 39 39 38
28 30 30 31 32 33 34 34 35 36 37 38 39 40 40 40 40 40 41 41 40 40 41 42 42 43 42 38 35 34 34 35 37 37 38 38 38 38 39 40 39 39
28 28 29 30 30 30 31 32 33 35 36 37 37 38 38 39 40 41 42 42 41 41 43 44 45 47 45 39 36 35 34 35 36 38 38 39 40 39 40 40 40 40
27 26 27 28 28 29 31 33 34 35 35 35 35 36 38 39 40 41 41 42 42 42 42 44 47 49 45 40 37 37 36 36 37 38 39 40 41 41 41 41 41 40
24 25 26 28 29 30 31 32 32 33 34 34 34 36 37 38 39 40 41 42 42 42 42 44 47 47 43 40 39 38 38 38 38 39 39 39 40 41 41 41 41 41
23 25 27 29 30 30 31 31 32 32 33 33 33 36 37 37 38 38 39 41 42 41 40 43 47 46 42 40 40 39 39 38 38 38 38 39 41 42 42 42 41 41
23 25 27 28 29 30 31 32 32 33 33 32 33 35 36 35 36 37 38 40 41 42 40 42 46 46 42 41 40 39 39 38 37 37 37 39 41 43 42 42 42 42
23 24 26 28 30 31 32 33 33 33 34 32 31 33 35 35 35 37 40 41 41 41 40 41 45 46 42 41 41 40 39 39 38 37 38 39 42 43 43 43 44 44
23 25 26 28 30 31 32 32 33 33 33 32 31 32 35 37 37 37 41 42 40 39 39 39 42 45 42 40 40 39 37 37 37 36 37 37 38 39 41 44 45 46
24 26 27 28 29 31 31 31 31 32 32 32 33 34 36 38 37 37 40 42 40 38 39 39 40 42 41 37 36 36 35 35 35 35 34 35 36 36 37 40 42 43
Wind_Direction
64 63 62 59 58 55 52 49 47 44 41 35 31 26 19 14 7 358 349 341 335 334 330 324 320 317 313 310 308 305 300 295 291 287 284 280 276 273 269 263 258 254
60 59 58 57 56 54 52 50 48 46 43 38 34 29 25 21 17 13 6 357 348 338 330 324 322 322 319 316 313 309 305 300 295 291 288 285 282 280 276 273 267 262
53 52 51 49 47 46 44 44 44 42 40 38 35 31 27 23 20 18 15 11 6 359 350 340 331 326 323 321 319 315 311 307 302 298 294 289 286 284 282 279 276 271
44 44 44 42 39 37 34 32 31 29 27 27 26 23 22 20 18 17 15 13 10 7 4 358 351 342 332 324 320 317 315 312 309 305 300 295 290 287 285 283 281 278
36 34 33 32 30 29 26 24 22 18 16 15 13 10 8 8 7 6 7 7 7 5 4 2 359 355 347 337 326 318 315 313 311 310 305 300 297 293 289 287 284 281
32 26 22 19 17 16 15 15 13 10 8 7 5 3 360 358 356 354 353 353 354 355 356 356 356 355 352 347 338 329 321 314 311 310 307 303 301 298 294 290 286 284
30 20 14 9 7 5 2 2 2 1 0 357 356 357 356 353 350 348 346 343 343 343 344 345 345 347 347 345 341 337 331 322 315 311 306 304 302 300 297 294 290 287
25 16 11 6 2 358 352 351 351 352 351 348 347 348 349 347 345 344 342 339 337 335 334 334 333 334 336 336 336 334 331 327 321 313 306 302 301 298 296 295 292 288
13 7 4 2 359 354 348 345 342 342 343 341 339 339 340 340 339 338 337 335 333 331 329 328 326 325 324 325 326 326 326 325 321 316 309 303 299 296 294 293 292 289
6 360 356 354 353 350 347 343 339 337 337 335 334 333 334 334 333 332 331 328 326 325 324 323 322 320 317 316 317 318 318 318 317 315 311 306 301 297 295 293 289 286
358 354 350 348 346 344 342 340 336 334 333 332 331 329 329 329 328 327 326 323 321 319 318 317 317 315 312 311 311 310 309 309 310 309 307 305 303 300 298 294 289 285
351 347 344 342 340 338 337 335 333 331 330 329 328 326 326 325 324 324 323 320 318 315 313 312 312 310 307 306 305 303 301 300 301 301 300 299 298 298 297 294 290 287
344 341 338 336 335 333 332 330 330 329 328 327 325 323 322 321 320 319 319 317 314 312 310 309 308 306 303 301 300 298 296 293 293 294 294 293 292 292 293 293 290 287
336 334 332 330 328 327 326 326 326 325 324 323 322 320 319 318 316 315 314 312 310 308 306 305 304 302 299 297 297 295 293 290 290 289 287 287 287 287 288 289 289 287
329 328 326 323 322 321 321 321 321 321 320 319 318 317 316 314 313 312 310 308 306 304 303 302 300 297 296 295 294 293 291 289 288 287 285 282 280 281 281 282 283 283
323 322 320 318 317 316 317 317 316 316 316 315 314 313 312 311 310 308 306 304 303 302 300 299 297 295 295 294 292 289 288 287 286 285 283 281 279 278 278 277 277 277
317 317 315 312 311 311 312 312 311 311 311 310 310 309 308 307 305 303 302 300 299 299 297 296 294 293 294 293 290 286 285 285 284 283 281 280 278 277 277 278 277 276
313 312 310 308 308 308 308 308 307 307 307 306 306 305 304 302 301 299 299 299 297 296 295 294 293 293 292 291 288 286 285 284 283 283 281 278 276 276 276 277 277 277
312 311 308 306 307 307 306 306 305 304 304 304 303 302 300 299 298 297 297 296 296 295 294 293 293 292 292 291 289 288 287 287 286 284 282 280 277 275 274 274 274 274
310 308 306 305 305 305 304 303 303 303 301 301 300 299 298 296 296 296 295 295 294 293 293 292 291 291 292 292 292 292 292 291 290 287 284 281 279 277 275 274 273 272
308 305 304 304 304 304 304 302 301 300 299 299 298 296 295 295 295 294 294 293 293 293 293 292 291 291 293 294 294 295 295 294 292 289 285 282 280 279 277 275 274 272
304 303 303 304 305 304 303 301 300 300 298 299 298 296 294 294 293 293 293 293 293 294 294 293 292 293 295 297 297 297 297 296 292 288 285 282 281 279 278 277 276 275
303 304 304 304 304 303 303 302 301 300 299 300 299 297 296 295 294 294 293 292 293 294 294 294 294 295 297 299 299 299 299 297 294 290 286 283 281 280 279 279 278 277
304 304 303 304 304 304 303 302 302 301 301 302 300 297 295 295 294 293 292 292 292 293 294 295 294 295 298 300 300 299 298 296 294 291 287 284 282 281 281 280 279 277
306 306 307 307 306 305 304 303 302 302 302 301 299 296 295 294 294 293 292 291 292 292 293 295 295 296 299 301 301 300 298 295 293 290 286 284 283 282 282 280 278 276
312 312 311 309 306 305 304 302 302 302 302 301 299 297 296 295 294 293 291 291 292 293 293 294 295 296 299 302 302 301 300 298 294 290 288 288 287 285 284 281 278 277
Height
817 816 816 815 816 816 816 816 815 815 815 814 814 813 813 812 811 809 808 807 806 805 804 803 803 802 801 800 800 799 798 797 796 796 795 795 795 795 794 794 794 793
818 818 818 818 818 818 818 817 816 816 815 815 814 814 814 813 812 810 809 807 806 805 804 803 802 801 800 799 798 797 796 795 795 794 793 792 792 792 792 792 792 791
820 820 820 819 820 820 819 819 818 817 816 815 815 814 814 813 812 811 810 808 807 805 804 803 801 800 799 798 797 796 795 794 793 793 792 790 790 789 789 789 789 789
823 823 822 822 821 821 820 819 818 817 816 815 814 814 813 813 812 811 810 809 808 806 804 803 801 799 798 797 796 794 794 793 792 791 790 788 788 787 786 786 786 786
825 826 825 825 824 823 822 821 820 819 817 816 814 813 812 811 810 810 809 809 807 806 804 803 801 799 798 796 795 793 792 791 790 790 788 786 786 785 784 784 783 783
826 827 826 826 825 824 824 823 823 822 820 818 817 815 813 812 811 809 808 807 806 804 803 802 800 799 797 796 794 792 791 789 788 787 786 784 783 783 782 782 781 780
827 827 827 826 825 825 824 823 823 822 821 819 818 817 815 814 812 811 809 807 805 803 801 800 798 797 796 795 793 791 790 788 786 785 783 782 781 780 780 780 779 777
827 827 827 826 825 825 824 823 822 821 820 818 817 816 815 813 812 810 809 807 805 803 801 800 798 796 795 793 792 790 788 787 785 783 782 780 779 777 777 777 776 775
827 826 826 826 825 824 823 822 821 819 818 817 815 814 812 811 809 808 806 804 803 802 801 800 798 796 795 792 790 788 786 785 784 782 781 779 778 776 775 774 773 771
826 825 825 824 823 823 822 820 819 818 816 815 813 811 810 808 807 805 804 802 801 800 799 798 797 796 794 792 790 787 785 782 781 779 778 777 775 774 772 771 770 768
824 824 823 822 821 820 819 818 817 815 814 812 811 809 807 805 804 803 801 800 799 797 796 795 794 793 792 790 789 787 784 782 779 777 775 773 772 770 769 768 767 765
822 821 820 819 818 817 816 815 814 812 811 809 808 806 804 803 801 800 799 797 796 795 794 792 791 790 788 787 786 784 783 781 778 776 774 772 769 767 766 765 763 762
820 819 818 817 816 814 813 812 810 809 808 806 805 803 802 800 798 797 796 795 793 792 790 789 787 786 784 783 781 780 779 777 775 773 771 769 767 764 762 761 759 758
819 818 817 816 814 813 811 810 808 807 805 803 802 801 799 798 796 795 793 791 790 788 787 786 784 782 780 779 777 776 774 772 770 768 766 764 762 760 758 756 755 754
818 817 815 814 813 811 809 808 806 805 803 801 800 798 797 795 793 792 789 787 786 785 783 782 780 778 776 775 774 772 770 768 765 763 761 759 757 755 754 753 751 750
816 815 814 812 811 809 808 806 804 803 801 799 798 796 794 793 791 788 786 784 782 780 779 777 775 773 770 769 769 767 765 763 760 758 756 754 752 750 748 747 746 745
814 813 812 811 809 808 807 805 803 801 799 797 795 793 792 790 788 786 783 782 779 777 774 772 769 767 765 764 763 762 760 758 755 752 750 748 746 744 741 739 738 738
813 812 811 809 808 807 805 803 802 799 797 796 793 791 789 786 784 782 779 778 776 773 770 767 764 761 759 759 758 756 755 754 751 748 745 743 741 738 736 733 732 730
812 810 809 808 807 806 804 801 800 797 795 794 791 789 786 783 780 778 775 773 771 768 765 762 758 755 754 754 753 751 751 749 747 744 741 738 735 733 731 728 726 724
810 808 807 806 805 804 802 799 798 795 793 791 789 786 783 780 777 774 771 769 766 763 760 756 752 749 749 749 748 747 746 745 743 740 736 733 730 727 725 723 721 719
808 806 805 803 802 801 799 797 795 793 791 789 786 783 780 776 773 770 767 764 761 759 756 751 747 745 745 745 744 743 742 740 737 734 731 727 724 722 720 717 716 714
806 804 802 801 799 798 795 794 792 789 787 786 783 779 776 773 770 767 763 760 756 755 753 747 742 740 741 741 739 738 737 734 732 728 725 721 717 715 714 712 711 709
804 802 800 798 796 794 792 790 788 785 783 782 779 775 772 769 766 763 759 756 753 750 749 745 738 735 736 736 735 734 732 729 726 722 718 715 711 708 707 706 705 704
801 799 798 795 793 791 788 786 784 781 779 778 775 771 767 764 762 758 754 751 749 747 745 742 735 731 732 732 730 729 728 724 721 717 712 708 705 702 701 700 698 696
798 796 794 792 790 787 785 783 780 777 775 773 771 767 762 759 757 754 748 745 745 744 741 739 734 728 728 728 726 724 723 720 716 712 707 703 700 697 694 692 690 688
794 793 791 789 787 784 782 780 777 774 771 768 765 762 758 754 751 749 743 739 740 740 736 735 731 725 724 724 722 719 718 716 712 708 703 699 696 693 688 684 682 680